カタログに戻る

STARLINK-30069

運用中通信VLEO
NORAD 56834·PAYLOAD·🇺🇸 United States

打ち上げ Jun 4, 2023 から Cape Canaveral Space Force Station

Loading…

次のパス (今後24時間)

TLE

最新Source: CelesTrak SupGP

元期: Sep 15, 2026, 02:11 UTC

1 56834C 23079M   26258.09145833  .00051475  00000+0  18641-2 0  2584
2 56834  42.9998 114.0161 0001555 269.8635 123.7864 15.27558553    16

AllMySatでSTARLINK-30069をリアルタイム追跡

Download on the App Store